Weather History for KHSV - September, 2013

Change the Weather History Date:

Friday, September 13, 2013

  Actual Average Record
Temperature  
Mean Temperature 73 °F 75 °F  
Max Temperature 84 °F 86 °F 101 °F (1927)
Min Temperature 61 °F 64 °F 42 °F (1940)
Degree Days  
Heating Degree Days 0 0  
Month to date heating degree days 0 0  
Since 1 July heating degree days 0 0  
Cooling Degree Days 8 10  
Month to date cooling degree days 174 153  
Year to date cooling degree days 1640 1748  
Growing Degree Days 24 (Base 50)    
Moisture  
Dew Point 63 °F    
Average Humidity 67    
Maximum Humidity 100    
Minimum Humidity 34    
Precipitation  
Precipitation 0.00 in 0.13 in 5.95 in (1929)
Month to date precipitation 1.27 1.56  
Year to date precipitation 44.89 37.88  
Snow  
Snow 0.00 in - - ()
Month to date snowfall 0.0  
Since 1 July snowfall 0.0  
Since 1 September snowfall 0.0  
Snow Depth 0.00 in    
Sea Level Pressure  
Sea Level Pressure 29.94 in    
Wind  
Wind Speed 7 mph (North)    
Max Wind Speed 15 mph    
Max Gust Speed 20 mph    
Visibility 6 miles    
Events Fog    
T = Trace of Precipitation, MM = Missing Value Source: NWS Daily Summary

Daily Weather History Graph

Daily Weather History Graph

Search for Another Location

Airport or City:

Trip Planner

Search our weather history database for the weather conditions in past years. The results will help you decide how hot, cold, wet, or windy it might be!

Date:

Astronomy

Sep. 13, 2013 Rise Set
Actual Time 6:28 AM CDT 6:56 PM CDT
Civil Twilight 6:03 AM CDT 7:21 PM CDT
Nautical Twilight 5:33 AM CDT 7:51 PM CDT
Astronomical Twilight 5:03 AM CDT 8:21 PM CDT
Moon 2:35 PM CDT (9/13) 12:08 AM CDT (9/13)
Length of Visible Light 13h 18m
Length of Day
12h 27m
First Quarter, 61% of the Moon is Illuminated
Sep 13
First Quarter
Sep 19
Full
Sep 26
Last Quarter
Oct 4
New
Oct 11
First Quarter

Hourly Weather History & Observations

Time (CDT) Temp. Heat Index Dew Point Humidity Pressure Visibility Wind Dir Wind Speed Gust Speed Precip Events Conditions
12:53 AM 69.1 °F - 68.0 °F 96% 29.94 in 4.0 mi Calm Calm - N/A   Clear
12:57 AM 68.0 °F - 66.2 °F 94% 29.96 in 1.5 mi Calm Calm - N/A   Partly Cloudy
1:00 AM 68.0 °F - 66.2 °F 94% 29.95 in 0.8 mi Calm Calm - N/A   Mist
1:15 AM 69.8 °F - 68.0 °F 94% 29.95 in 1.2 mi Calm Calm - N/A   Partly Cloudy
1:23 AM 69.8 °F - 68.0 °F 94% 29.95 in 2.5 mi Calm Calm - N/A   Partly Cloudy
1:34 AM 69.8 °F - 69.8 °F 100% 29.95 in 4.0 mi North 3.5 mph - N/A   Clear
1:53 AM 70.0 °F - 69.1 °F 97% 29.92 in 4.0 mi Calm Calm - N/A   Clear
2:53 AM 69.1 °F - 68.0 °F 96% 29.91 in 4.0 mi Calm Calm - N/A   Clear
2:59 AM 68.0 °F - 66.2 °F 94% 29.94 in 1.5 mi Calm Calm - N/A   Clear
3:01 AM 68.0 °F - 66.2 °F 94% 29.94 in 0.8 mi Calm Calm - N/A   Mist
3:22 AM 68.0 °F - 66.2 °F 94% 29.93 in 1.2 mi NW 3.5 mph - N/A   Scattered Clouds
3:26 AM 69.8 °F - 68.0 °F 94% 29.93 in 3.0 mi NW 3.5 mph - N/A   Scattered Clouds
3:41 AM 69.8 °F - 68.0 °F 94% 29.94 in 1.8 mi Calm Calm - N/A   Scattered Clouds
3:45 AM 69.8 °F - 68.0 °F 94% 29.94 in 0.8 mi Calm Calm - N/A   Mist
3:53 AM 69.1 °F - 68.0 °F 96% 29.91 in 0.2 mi Calm Calm - N/A Fog Fog
4:15 AM 69.8 °F - 68.0 °F 94% 29.94 in 1.0 mi Calm Calm - N/A   Mist
4:26 AM 69.8 °F - 68.0 °F 94% 29.94 in 3.0 mi Calm Calm - N/A   Mostly Cloudy
4:53 AM 70.0 °F - 69.1 °F 97% 29.91 in 5.0 mi Calm Calm - N/A   Overcast
5:28 AM 69.8 °F - 68.0 °F 94% 29.95 in 3.0 mi Calm Calm - N/A   Scattered Clouds
5:41 AM 69.8 °F - 68.0 °F 94% 29.95 in 2.5 mi Calm Calm - N/A   Clear
5:46 AM 69.8 °F - 68.0 °F 94% 29.95 in 3.0 mi Calm Calm - N/A   Scattered Clouds
5:53 AM 69.1 °F - 68.0 °F 96% 29.93 in 3.0 mi North 3.5 mph - N/A   Scattered Clouds
6:53 AM 68.0 °F - 66.9 °F 96% 29.95 in 3.0 mi Calm Calm - N/A Fog Shallow Fog
7:32 AM 69.8 °F - 69.8 °F 100% 29.97 in 4.0 mi Calm Calm - N/A Fog Shallow Fog
7:53 AM 71.1 °F - 69.1 °F 93% 29.95 in 4.0 mi NNE 4.6 mph - N/A Fog Shallow Fog
8:07 AM 71.6 °F - 69.8 °F 94% 29.97 in 5.0 mi NNE 6.9 mph - N/A Fog Shallow Fog
8:53 AM 75.0 °F - 68.0 °F 79% 29.96 in 7.0 mi NE 6.9 mph - N/A   Mostly Cloudy
9:23 AM 73.4 °F - 66.2 °F 78% 29.98 in 9.0 mi NNE 8.1 mph - N/A   Mostly Cloudy
9:53 AM 75.9 °F - 66.9 °F 74% 29.96 in 10.0 mi NNE 4.6 mph - N/A   Scattered Clouds
10:53 AM 80.1 °F 81.7 °F 64.0 °F 58% 29.96 in 10.0 mi North 4.6 mph - N/A   Scattered Clouds
11:53 AM 81.0 °F 81.7 °F 61.0 °F 50% 29.96 in 10.0 mi NNE 8.1 mph 17.3 mph N/A   Partly Cloudy
12:53 PM 82.0 °F 81.6 °F 55.9 °F 41% 29.94 in 10.0 mi North 11.5 mph - N/A   Scattered Clouds
1:53 PM 82.0 °F 81.4 °F 55.0 °F 39% 29.93 in 10.0 mi NNW 8.1 mph - N/A   Scattered Clouds
2:53 PM 82.9 °F - 52.0 °F 34% 29.91 in 10.0 mi NNW 10.4 mph - N/A   Scattered Clouds
3:53 PM 82.0 °F 81.4 °F 55.0 °F 39% 29.90 in 10.0 mi North 10.4 mph 16.1 mph N/A   Scattered Clouds
4:53 PM 80.1 °F 80.0 °F 54.0 °F 40% 29.90 in 10.0 mi NNE 10.4 mph - N/A   Scattered Clouds
5:53 PM 78.1 °F - 51.1 °F 39% 29.91 in 10.0 mi NNE 13.8 mph - N/A   Scattered Clouds
6:53 PM 73.0 °F - 52.0 °F 48% 29.92 in 10.0 mi NNE 9.2 mph 17.3 mph N/A   Scattered Clouds
7:53 PM 70.0 °F - 54.0 °F 57% 29.94 in 10.0 mi NNE 8.1 mph - N/A   Partly Cloudy
8:53 PM 68.0 °F - 53.1 °F 59% 29.96 in 10.0 mi NNE 8.1 mph - N/A   Clear
9:53 PM 68.0 °F - 52.0 °F 56% 29.98 in 10.0 mi NNE 9.2 mph - N/A   Clear
10:53 PM 64.9 °F - 52.0 °F 63% 29.97 in 10.0 mi NNE 10.4 mph - N/A   Clear
11:53 PM 63.0 °F - 53.1 °F 70% 29.97 in 10.0 mi NNE 11.5 mph - N/A   Clear